QPF
0.04 0.04 0.04 0.04 0.03 0.02 0.02 0.02 0.02 0.01 0.01 0.01 0.01 0.01 0.02 0.02 0.03 0.03 0.04 0.05 0.03 0.04 0.03 0.03 0.04 0.04 0.05 0.05 0.04 0.03 0.02 0.02 0.01 0.01 0.01 0.01 0.01 0.01 0.01 0.01 0.01 0.01 0.01
0.04 0.04 0.03 0.02 0.02 0.02 0.02 0.02 0.02 0.02 0.02 0.02 0.01 0.01 0.02 0.02 0.02 0.02 0.03 0.05 0.05 0.04 0.04 0.03 0.04 0.05 0.05 0.05 0.04 0.05 0.04 0.03 0.02 0.01 0.01 0.01 0.01 0.01 0.01 0.01 0.01 0.01 0.01
0.08 0.06 0.04 0.02 0.02 0.02 0.01 0.01 0.01 0.01 0.01 0.02 0.02 0.02 0.02 0.02 0.01 0.01 0.01 0.02 0.04 0.03 0.03 0.05 0.05 0.05 0.05 0.04 0.04 0.05 0.05 0.04 0.03 0.03 0.02 0.02 0.01 0.01 0.01 0.01 0.01 0.01 0.01
0.09 0.08 0.06 0.05 0.03 0.02 0.01 0.01 0.01 0.01 0.01 0.01 0.01 0.01 0.02 0.02 0.02 0.02 0.02 0.02 0.01 0.01 0.01 0.02 0.03 0.04 0.04 0.04 0.04 0.05 0.05 0.06 0.04 0.03 0.03 0.03 0.02 0.02 0.02 0.01 0.01 0.01 0.01
0.10 0.11 0.10 0.08 0.08 0.04 0.02 0.01 0.01 0.01 0.01 0.02 0.02 0.02 0.02 0.02 0.02 0.03 0.02 0.02 0.01 0.01 0.01 0.02 0.02 0.03 0.04 0.04 0.04 0.05 0.06 0.05 0.05 0.04 0.04 0.04 0.04 0.03 0.03 0.02 0.02 0.02 0.01
0.06 0.07 0.10 0.10 0.07 0.06 0.04 0.02 0.01 0.01 0.01 0.02 0.02 0.02 0.03 0.03 0.03 0.03 0.03 0.02 0.01 0.01 0.01 0.02 0.02 0.03 0.03 0.04 0.04 0.04 0.05 0.04 0.04 0.04 0.04 0.04 0.05 0.05 0.05 0.05 0.05 0.04 0.03
0.05 0.06 0.07 0.09 0.08 0.06 0.06 0.05 0.03 0.02 0.01 0.01 0.02 0.01 0.02 0.02 0.03 0.03 0.03 0.03 0.02 0.02 0.01 0.02 0.04 0.05 0.04 0.02 0.03 0.03 0.04 0.05 0.04 0.04 0.03 0.04 0.04 0.04 0.05 0.06 0.06 0.06 0.06
0.05 0.04 0.05 0.06 0.08 0.06 0.04 0.04 0.04 0.04 0.03 0.02 0.02 0.02 0.02 0.02 0.02 0.03 0.03 0.03 0.02 0.02 0.02 0.02 0.01 0.02 0.02 0.02 0.02 0.03 0.03 0.03 0.04 0.04 0.03 0.03 0.03 0.03 0.03 0.04 0.05 0.06 0.07
0.04 0.03 0.03 0.03 0.05 0.06 0.05 0.04 0.04 0.04 0.04 0.03 0.03 0.04 0.04 0.03 0.03 0.02 0.03 0.03 0.02 0.02 0.02 0.02 0.02 0.01 0.01 0.01 0.02 0.02 0.03 0.03 0.03 0.04 0.03 0.02 0.02 0.03 0.03 0.04 0.04 0.05 0.05
0.03 0.03 0.03 0.03 0.03 0.03 0.04 0.05 0.04 0.04 0.03 0.04 0.04 0.04 0.04 0.04 0.04 0.03 0.03 0.04 0.05 0.04 0.03 0.03 0.02 0.02 0.01 0.01 0.01 0.01 0.02 0.03 0.03 0.03 0.03 0.02 0.02 0.03 0.04 0.04 0.05 0.05 0.05
0.01 0.01 0.02 0.02 0.02 0.02 0.02 0.03 0.04 0.04 0.02 0.02 0.03 0.03 0.04 0.03 0.03 0.03 0.02 0.03 0.04 0.05 0.05 0.04 0.03 0.02 0.02 0.02 0.01 0.02 0.02 0.02 0.02 0.02 0.03 0.04 0.04 0.03 0.04 0.04 0.04 0.04 0.04
0.01 0.01 0.01 0.01 0.01 0.01 0.01 0.01 0.01 0.02 0.02 0.02 0.02 0.02 0.03 0.03 0.03 0.03 0.03 0.02 0.03 0.03 0.05 0.06 0.05 0.04 0.03 0.03 0.02 0.02 0.02 0.01 0.01 0.01 0.02 0.04 0.04 0.04 0.05 0.04 0.04 0.04 0.03
0.01 0.01 0.01 0.01 0.01 0.01 0.01 0.01 0.01 0.01 0.01 0.01 0.01 0.01 0.01 0.02 0.03 0.04 0.05 0.04 0.03 0.03 0.04 0.05 0.06 0.06 0.04 0.03 0.02 0.02 0.01 0.01 0.02 0.02 0.03 0.04 0.04 0.04 0.04 0.05 0.05 0.06 0.05
0.01 0.01 0.00 0.00 0.00 0.00 0.00 0.01 0.01 0.01 0.01 0.01 0.01 0.01 0.02 0.02 0.03 0.05 0.06 0.06 0.06 0.05 0.05 0.04 0.04 0.04 0.03 0.03 0.03 0.02 0.01 0.01 0.01 0.02 0.03 0.03 0.04 0.05 0.04 0.04 0.04 0.05 0.09
0.01 0.01 0.00 0.00 0.00 0.00 0.00 0.00 0.01 0.01 0.01 0.01 0.01 0.01 0.01 0.02 0.02 0.03 0.03 0.04 0.05 0.05 0.04 0.04 0.03 0.02 0.02 0.02 0.02 0.02 0.01 0.02 0.02 0.02 0.02 0.02 0.02 0.03 0.03 0.04 0.04 0.04 0.04
0.00 0.00 0.00 0.00 0.00 0.00 0.00 0.00 0.00 0.00 0.01 0.01 0.01 0.01 0.01 0.01 0.02 0.02 0.03 0.03 0.03 0.04 0.03 0.02 0.02 0.01 0.01 0.01 0.01 0.01 0.01 0.02 0.03 0.03 0.03 0.03 0.02 0.02 0.03 0.03 0.03 0.03 0.03
0.00 0.00 0.00 0.00 0.00 0.00 0.00 0.00 0.00 0.00 0.00 0.00 0.00 0.01 0.00 0.01 0.01 0.01 0.01 0.01 0.02 0.02 0.02 0.01 0.00 0.00 0.01 0.01 0.01 0.01 0.01 0.01 0.02 0.02 0.02 0.02 0.02 0.02 0.02 0.02 0.03 0.03 0.03
0.00 0.00 0.00 0.00 0.00 0.00 0.00 0.00 0.00 0.00 0.00 0.00 0.00 0.00 0.00 0.01 0.01 0.01 0.01 0.01 0.01 0.01 0.02 0.01 0.01 0.00 0.00 0.00 0.00 0.01 0.01 0.01 0.01 0.02 0.02 0.02 0.02 0.02 0.03 0.03 0.03 0.04 0.04
0.00 0.00 0.00 0.00 0.00 0.00 0.00 0.00 0.00 0.00 0.00 0.00 0.00 0.00 0.00 0.01 0.01 0.01 0.01 0.01 0.01 0.01 0.01 0.01 0.01 0.01 0.01 0.01 0.01 0.01 0.01 0.01 0.01 0.01 0.01 0.01 0.01 0.01 0.02 0.03 0.03 0.04 0.05
0.00 0.00 0.00 0.00 0.00 0.00 0.00 0.00 0.00 0.00 0.00 0.00 0.00 0.00 0.01 0.01 0.01 0.01 0.01 0.01 0.01 0.01 0.01 0.01 0.01 0.01 0.01 0.01 0.02 0.02 0.02 0.01 0.01 0.01 0.01 0.01 0.01 0.01 0.01 0.02 0.03 0.03 0.03
0.00 0.00 0.00 0.00 0.00 0.00 0.00 0.00 0.00 0.00 0.00 0.00 0.01 0.01 0.01 0.01 0.01 0.01 0.01 0.01 0.01 0.01 0.02 0.02 0.01 0.01 0.01 0.01 0.01 0.01 0.02 0.02 0.02 0.02 0.01 0.01 0.01 0.01 0.01 0.02 0.02 0.03 0.04
0.00 0.00 0.00 0.00 0.00 0.00 0.00 0.01 0.01 0.01 0.01 0.01 0.01 0.01 0.01 0.01 0.01 0.01 0.01 0.01 0.01 0.01 0.02 0.02 0.02 0.01 0.01 0.01 0.01 0.01 0.02 0.02 0.02 0.02 0.01 0.01 0.01 0.01 0.01 0.01 0.01 0.02 0.02
0.00 0.00 0.00 0.00 0.00 0.00 0.00 0.01 0.01 0.01 0.01 0.01 0.01 0.00 0.00 0.00 0.01 0.00 0.01 0.01 0.01 0.01 0.01 0.01 0.01 0.01 0.01 0.01 0.01 0.01 0.01 0.01 0.02 0.02 0.02 0.01 0.01 0.01 0.00 0.00 0.00 0.01 0.01
0.00 0.00 0.00 0.00 0.00 0.00 0.01 0.01 0.01 0.01 0.01 0.01 0.01 0.01 0.00 0.00 0.00 0.00 0.00 0.00 0.00 0.00 0.01 0.01 0.01 0.01 0.01 0.01 0.01 0.01 0.01 0.01 0.01 0.01 0.01 0.01 0.00 0.00 0.00 0.00 0.00 0.00 0.00
0.00 0.00 0.00 0.00 0.01 0.01 0.01 0.01 0.01 0.01 0.01 0.01 0.01 0.01 0.01 0.00 0.01 0.01 0.01 0.01 0.01 0.01 0.01 0.01 0.01 0.01 0.01 0.01 0.01 0.01 0.02 0.01 0.01 0.01 0.00 0.00 0.00 0.00 0.00 0.00 0.00 0.00 0.00
0.00 0.00 0.00 0.00 0.01 0.01 0.01 0.01 0.01 0.01 0.01 0.01 0.01 0.01 0.01 0.01 0.01 0.01 0.01 0.01 0.01 0.01 0.01 0.01 0.01 0.01 0.01 0.01 0.01 0.01 0.01 0.01 0.01 0.01 0.00 0.00 0.00 0.00 0.00 0.00 0.00 0.00 0.00
MSLP
1019.23 1019.18 1019.07 1018.92 1018.73 1018.52 1018.30 1018.08 1017.86 1017.64 1017.43 1017.24 1017.06 1016.91 1016.79 1016.68 1016.59 1016.51 1016.40 1016.27 1016.09 1015.86 1015.60 1015.31 1015.02 1014.76 1014.55 1014.42 1014.37 1014.40 1014.51 1014.69 1014.91 1015.15 1015.39 1015.63 1015.85 1016.05 1016.22 1016.37 1016.50 1016.61 1016.70
1019.35 1019.29 1019.18 1019.03 1018.84 1018.63 1018.41 1018.19 1017.97 1017.75 1017.54 1017.34 1017.15 1016.98 1016.84 1016.71 1016.61 1016.50 1016.39 1016.25 1016.07 1015.85 1015.57 1015.26 1014.94 1014.62 1014.33 1014.10 1013.94 1013.87 1013.89 1013.98 1014.13 1014.34 1014.57 1014.81 1015.05 1015.27 1015.47 1015.65 1015.80 1015.94 1016.06
1019.39 1019.33 1019.23 1019.09 1018.92 1018.74 1018.54 1018.34 1018.13 1017.92 1017.70 1017.49 1017.29 1017.10 1016.94 1016.79 1016.66 1016.54 1016.42 1016.28 1016.11 1015.89 1015.62 1015.30 1014.96 1014.60 1014.25 1013.93 1013.68 1013.50 1013.40 1013.39 1013.46 1013.59 1013.77 1013.98 1014.21 1014.43 1014.64 1014.84 1015.01 1015.17 1015.33
1019.36 1019.31 1019.23 1019.13 1019.00 1018.85 1018.69 1018.51 1018.32 1018.11 1017.90 1017.68 1017.46 1017.25 1017.06 1016.89 1016.74 1016.61 1016.48 1016.35 1016.18 1015.98 1015.73 1015.43 1015.08 1014.71 1014.32 1013.94 1013.60 1013.32 1013.11 1012.99 1012.95 1012.98 1013.09 1013.23 1013.41 1013.60 1013.80 1013.98 1014.16 1014.34 1014.51
1019.30 1019.27 1019.23 1019.17 1019.09 1018.99 1018.86 1018.71 1018.53 1018.33 1018.11 1017.87 1017.64 1017.41 1017.19 1017.00 1016.84 1016.70 1016.57 1016.44 1016.30 1016.12 1015.91 1015.63 1015.31 1014.94 1014.54 1014.12 1013.72 1013.36 1013.05 1012.82 1012.66 1012.59 1012.58 1012.64 1012.74 1012.86 1013.01 1013.16 1013.33 1013.49 1013.67
1019.24 1019.24 1019.23 1019.22 1019.19 1019.13 1019.03 1018.90 1018.73 1018.53 1018.30 1018.06 1017.81 1017.57 1017.34 1017.14 1016.97 1016.83 1016.70 1016.59 1016.47 1016.33 1016.15 1015.91 1015.62 1015.28 1014.89 1014.47 1014.03 1013.61 1013.23 1012.90 1012.63 1012.44 1012.32 1012.26 1012.26 1012.30 1012.37 1012.47 1012.58 1012.72 1012.87
1019.20 1019.21 1019.24 1019.27 1019.27 1019.25 1019.18 1019.07 1018.91 1018.71 1018.48 1018.23 1017.98 1017.73 1017.51 1017.31 1017.15 1017.01 1016.90 1016.80 1016.71 1016.59 1016.45 1016.26 1016.01 1015.71 1015.34 1014.94 1014.50 1014.05 1013.61 1013.20 1012.85 1012.55 1012.32 1012.15 1012.04 1011.97 1011.95 1011.97 1012.02 1012.10 1012.22
1019.16 1019.19 1019.24 1019.29 1019.33 1019.33 1019.28 1019.18 1019.03 1018.84 1018.62 1018.38 1018.14 1017.92 1017.72 1017.54 1017.40 1017.28 1017.18 1017.10 1017.02 1016.93 1016.81 1016.65 1016.45 1016.18 1015.86 1015.48 1015.05 1014.60 1014.14 1013.70 1013.28 1012.90 1012.57 1012.30 1012.09 1011.93 1011.81 1011.74 1011.71 1011.73 1011.78
1019.14 1019.16 1019.22 1019.28 1019.33 1019.34 1019.30 1019.22 1019.08 1018.91 1018.72 1018.51 1018.32 1018.13 1017.97 1017.83 1017.72 1017.62 1017.54 1017.47 1017.39 1017.31 1017.21 1017.07 1016.89 1016.66 1016.37 1016.03 1015.64 1015.21 1014.76 1014.30 1013.85 1013.43 1013.04 1012.70 1012.40 1012.15 1011.96 1011.80 1011.70 1011.64 1011.62
1019.09 1019.10 1019.15 1019.21 1019.25 1019.27 1019.25 1019.18 1019.07 1018.94 1018.79 1018.64 1018.49 1018.37 1018.26 1018.17 1018.09 1018.02 1017.95 1017.88 1017.80 1017.71 1017.61 1017.47 1017.31 1017.10 1016.84 1016.54 1016.18 1015.79 1015.36 1014.92 1014.48 1014.04 1013.64 1013.26 1012.92 1012.61 1012.35 1012.14 1011.97 1011.84 1011.75
1019.00 1018.99 1019.01 1019.05 1019.09 1019.11 1019.10 1019.06 1018.99 1018.91 1018.82 1018.73 1018.66 1018.60 1018.56 1018.52 1018.47 1018.42 1018.36 1018.28 1018.19 1018.09 1017.96 1017.82 1017.66 1017.46 1017.23 1016.96 1016.64 1016.29 1015.90 1015.50 1015.08 1014.67 1014.27 1013.89 1013.54 1013.22 1012.93 1012.67 1012.45 1012.27 1012.13
1018.83 1018.79 1018.78 1018.81 1018.84 1018.86 1018.87 1018.87 1018.85 1018.82 1018.80 1018.79 1018.79 1018.80 1018.81 1018.81 1018.80 1018.77 1018.71 1018.62 1018.51 1018.38 1018.24 1018.08 1017.91 1017.72 1017.50 1017.26 1016.98 1016.67 1016.33 1015.97 1015.60 1015.23 1014.87 1014.51 1014.18 1013.86 1013.57 1013.30 1013.06 1012.85 1012.66
1018.55 1018.48 1018.46 1018.46 1018.49 1018.53 1018.56 1018.60 1018.63 1018.67 1018.71 1018.77 1018.83 1018.90 1018.96 1019.00 1019.01 1018.99 1018.93 1018.83 1018.71 1018.56 1018.41 1018.24 1018.07 1017.88 1017.68 1017.45 1017.21 1016.93 1016.64 1016.32 1016.00 1015.67 1015.35 1015.04 1014.75 1014.46 1014.19 1013.93 1013.69 1013.46 1013.25
1018.16 1018.07 1018.03 1018.02 1018.05 1018.10 1018.17 1018.24 1018.33 1018.42 1018.53 1018.64 1018.76 1018.87 1018.96 1019.02 1019.05 1019.03 1018.98 1018.88 1018.76 1018.61 1018.46 1018.30 1018.13 1017.96 1017.77 1017.57 1017.34 1017.09 1016.83 1016.55 1016.26 1015.97 1015.70 1015.43 1015.17 1014.92 1014.68 1014.45 1014.22 1013.99 1013.77
1017.66 1017.55 1017.49 1017.49 1017.52 1017.59 1017.68 1017.80 1017.93 1018.07 1018.22 1018.37 1018.52 1018.66 1018.77 1018.85 1018.89 1018.88 1018.84 1018.76 1018.65 1018.54 1018.41 1018.27 1018.13 1017.98 1017.82 1017.63 1017.42 1017.18 1016.93 1016.67 1016.40 1016.14 1015.89 1015.65 1015.43 1015.21 1015.00 1014.79 1014.58 1014.37 1014.15
1017.06 1016.94 1016.88 1016.87 1016.91 1017.00 1017.11 1017.26 1017.42 1017.59 1017.77 1017.94 1018.11 1018.26 1018.38 1018.47 1018.53 1018.54 1018.52 1018.48 1018.42 1018.35 1018.27 1018.18 1018.09 1017.97 1017.84 1017.67 1017.47 1017.23 1016.98 1016.71 1016.44 1016.19 1015.94 1015.72 1015.51 1015.32 1015.13 1014.94 1014.74 1014.54 1014.33
1016.39 1016.27 1016.21 1016.20 1016.24 1016.33 1016.46 1016.61 1016.79 1016.97 1017.16 1017.35 1017.52 1017.68 1017.81 1017.91 1017.98 1018.03 1018.06 1018.07 1018.07 1018.07 1018.06 1018.04 1018.01 1017.94 1017.84 1017.69 1017.50 1017.26 1016.99 1016.71 1016.42 1016.15 1015.89 1015.66 1015.45 1015.25 1015.07 1014.89 1014.70 1014.51 1014.30
1015.71 1015.58 1015.51 1015.49 1015.53 1015.61 1015.73 1015.88 1016.05 1016.23 1016.42 1016.61 1016.79 1016.95 1017.09 1017.21 1017.32 1017.41 1017.49 1017.57 1017.65 1017.72 1017.80 1017.86 1017.89 1017.87 1017.81 1017.68 1017.50 1017.26 1016.98 1016.67 1016.36 1016.05 1015.77 1015.52 1015.29 1015.08 1014.89 1014.70 1014.51 1014.32 1014.12
1015.05 1014.90 1014.81 1014.77 1014.78 1014.84 1014.93 1015.06 1015.22 1015.39 1015.57 1015.75 1015.93 1016.10 1016.26 1016.42 1016.56 1016.70 1016.85 1017.00 1017.16 1017.32 1017.47 1017.60 1017.70 1017.74 1017.71 1017.61 1017.44 1017.20 1016.91 1016.59 1016.26 1015.93 1015.62 1015.34 1015.08 1014.85 1014.64 1014.43 1014.23 1014.03 1013.83
1014.43 1014.25 1014.12 1014.05 1014.02 1014.03 1014.09 1014.18 1014.30 1014.45 1014.62 1014.80 1014.99 1015.18 1015.37 1015.56 1015.75 1015.95 1016.16 1016.38 1016.60 1016.83 1017.05 1017.25 1017.40 1017.49 1017.50 1017.44 1017.29 1017.07 1016.78 1016.46 1016.12 1015.78 1015.46 1015.15 1014.87 1014.62 1014.38 1014.15 1013.93 1013.71 1013.50
1013.85 1013.64 1013.46 1013.33 1013.24 1013.20 1013.20 1013.25 1013.33 1013.46 1013.61 1013.79 1013.99 1014.21 1014.43 1014.66 1014.90 1015.15 1015.41 1015.69 1015.97 1016.25 1016.52 1016.76 1016.96 1017.09 1017.15 1017.12 1017.01 1016.82 1016.57 1016.27 1015.95 1015.62 1015.30 1014.98 1014.69 1014.41 1014.14 1013.89 1013.64 1013.40 1013.17
1013.31 1013.04 1012.80 1012.61 1012.46 1012.35 1012.29 1012.28 1012.32 1012.42 1012.57 1012.75 1012.96 1013.20 1013.46 1013.73 1014.02 1014.31 1014.61 1014.92 1015.24 1015.56 1015.86 1016.13 1016.36 1016.53 1016.63 1016.64 1016.58 1016.45 1016.26 1016.01 1015.74 1015.44 1015.14 1014.84 1014.54 1014.25 1013.96 1013.68 1013.40 1013.13 1012.88
1012.76 1012.44 1012.14 1011.88 1011.66 1011.48 1011.36 1011.30 1011.30 1011.37 1011.50 1011.69 1011.92 1012.18 1012.47 1012.78 1013.09 1013.42 1013.75 1014.08 1014.42 1014.75 1015.07 1015.36 1015.62 1015.82 1015.96 1016.04 1016.05 1015.99 1015.87 1015.70 1015.49 1015.26 1015.00 1014.73 1014.44 1014.14 1013.83 1013.52 1013.21 1012.90 1012.62
1012.20 1011.82 1011.46 1011.13 1010.84 1010.60 1010.42 1010.31 1010.28 1010.33 1010.45 1010.64 1010.88 1011.16 1011.47 1011.80 1012.14 1012.49 1012.83 1013.18 1013.52 1013.86 1014.19 1014.50 1014.78 1015.02 1015.21 1015.35 1015.43 1015.46 1015.43 1015.36 1015.24 1015.07 1014.88 1014.64 1014.37 1014.07 1013.75 1013.40 1013.05 1012.71 1012.39
1011.58 1011.15 1010.75 1010.36 1010.02 1009.73 1009.50 1009.35 1009.29 1009.32 1009.43 1009.62 1009.86 1010.16 1010.48 1010.83 1011.18 1011.53 1011.89 1012.24 1012.59 1012.94 1013.28 1013.60 1013.91 1014.20 1014.44 1014.65 1014.81 1014.93 1015.00 1015.01 1014.98 1014.89 1014.76 1014.56 1014.32 1014.02 1013.68 1013.31 1012.92 1012.53 1012.17
1010.92 1010.46 1010.01 1009.58 1009.20 1008.87 1008.61 1008.43 1008.35 1008.36 1008.47 1008.65 1008.90 1009.20 1009.53 1009.88 1010.24 1010.60 1010.96 1011.32 1011.68 1012.05 1012.41 1012.76 1013.11 1013.44 1013.74 1014.01 1014.25 1014.45 1014.60 1014.70 1014.74 1014.72 1014.64 1014.48 1014.26 1013.97 1013.61 1013.22 1012.79 1012.36 1011.94
Thickness
5672 5672 5672 5672 5672 5672 5672 5671 5671 5672 5672 5672 5672 5672 5672 5672 5673 5673 5674 5674 5673 5673 5672 5672 5671 5670 5669 5668 5667 5665 5664 5662 5660 5658 5656 5655 5653 5651 5650 5649 5648 5647 5646
5665 5665 5664 5664 5664 5665 5665 5665 5665 5665 5665 5665 5666 5666 5667 5667 5668 5668 5668 5668 5668 5668 5667 5667 5666 5665 5664 5664 5663 5661 5660 5658 5656 5654 5652 5650 5649 5647 5645 5644 5643 5642 5641
5658 5657 5657 5657 5657 5657 5658 5658 5658 5658 5658 5659 5659 5660 5661 5662 5662 5662 5663 5663 5663 5663 5662 5662 5662 5660 5659 5659 5658 5657 5655 5653 5651 5649 5647 5645 5644 5642 5641 5639 5638 5637 5636
5650 5650 5650 5649 5649 5649 5650 5650 5650 5650 5651 5651 5652 5654 5655 5656 5656 5657 5657 5657 5657 5657 5657 5657 5656 5655 5654 5653 5653 5652 5650 5648 5646 5644 5642 5640 5638 5637 5636 5634 5633 5632 5631
5642 5642 5642 5642 5642 5642 5642 5642 5642 5642 5643 5643 5645 5647 5648 5649 5650 5651 5651 5651 5651 5651 5651 5651 5650 5650 5648 5648 5647 5645 5644 5642 5640 5638 5636 5634 5633 5632 5630 5629 5628 5627 5625
5634 5634 5634 5634 5634 5634 5634 5634 5634 5635 5635 5636 5637 5639 5640 5642 5643 5644 5644 5645 5645 5645 5645 5644 5644 5643 5642 5641 5640 5638 5637 5635 5634 5632 5630 5629 5628 5626 5625 5624 5623 5622 5620
5626 5626 5626 5626 5626 5627 5627 5627 5626 5627 5627 5628 5628 5630 5632 5634 5635 5637 5638 5638 5638 5638 5638 5637 5637 5636 5635 5634 5632 5630 5629 5628 5627 5625 5624 5623 5622 5621 5620 5619 5618 5617 5616
5619 5619 5618 5618 5618 5619 5619 5619 5619 5619 5619 5620 5619 5619 5620 5624 5627 5629 5630 5630 5630 5630 5630 5630 5629 5628 5627 5626 5624 5623 5621 5621 5620 5619 5618 5617 5615 5614 5613 5612 5612 5611 5610
5612 5612 5611 5611 5611 5611 5611 5611 5611 5611 5611 5611 5611 5611 5611 5614 5616 5619 5620 5621 5621 5622 5622 5621 5621 5620 5619 5617 5616 5615 5614 5613 5613 5612 5611 5610 5608 5607 5606 5606 5605 5604 5603
5605 5605 5604 5604 5604 5604 5604 5604 5604 5604 5603 5603 5602 5603 5604 5605 5606 5609 5610 5611 5612 5613 5613 5613 5612 5612 5611 5610 5608 5607 5606 5605 5605 5605 5604 5602 5601 5600 5599 5598 5597 5596 5595
5598 5598 5598 5598 5597 5597 5598 5597 5597 5596 5596 5595 5595 5595 5595 5595 5597 5598 5602 5603 5602 5603 5604 5604 5604 5604 5603 5602 5601 5600 5599 5598 5597 5597 5596 5595 5593 5592 5591 5590 5589 5588 5587
5590 5591 5591 5591 5591 5590 5590 5590 5590 5589 5588 5588 5587 5587 5588 5587 5588 5588 5591 5593 5593 5595 5595 5595 5595 5594 5594 5593 5592 5591 5591 5590 5589 5588 5588 5587 5585 5583 5582 5581 5580 5579 5579
5583 5583 5583 5583 5583 5583 5583 5583 5582 5582 5581 5580 5580 5580 5580 5581 5581 5581 5582 5584 5584 5585 5586 5586 5586 5585 5585 5584 5583 5582 5582 5581 5580 5580 5579 5578 5577 5574 5573 5572 5571 5570 5570
5576 5576 5576 5576 5576 5576 5576 5576 5575 5575 5574 5573 5573 5572 5573 5573 5573 5574 5574 5574 5575 5576 5576 5577 5577 5576 5575 5574 5573 5573 5572 5571 5571 5571 5570 5569 5567 5566 5564 5563 5562 5561 5561
5569 5569 5570 5570 5569 5569 5569 5569 5568 5567 5567 5566 5566 5566 5566 5566 5566 5566 5566 5566 5566 5569 5571 5569 5567 5567 5565 5564 5563 5563 5562 5562 5561 5561 5560 5559 5558 5557 5556 5555 5553 5552 5552
5562 5562 5563 5562 5562 5562 5562 5561 5561 5561 5560 5560 5559 5559 5559 5559 5558 5558 5558 5558 5558 5559 5562 5561 5558 5556 5555 5554 5554 5553 5552 5552 5552 5551 5551 5550 5549 5548 5547 5546 5545 5544 5544
5555 5554 5555 5555 5555 5555 5554 5554 5554 5554 5553 5553 5552 5552 5552 5551 5550 5550 5549 5549 5550 5550 5552 5551 5548 5547 5546 5545 5544 5543 5543 5542 5542 5542 5542 5541 5540 5539 5538 5538 5537 5536 5536
5547 5546 5546 5546 5547 5547 5546 5546 5546 5546 5546 5545 5545 5544 5545 5544 5543 5542 5542 5542 5542 5542 5542 5542 5539 5537 5537 5536 5535 5534 5533 5533 5533 5533 5533 5532 5531 5530 5529 5529 5529 5528 5528
5538 5537 5537 5537 5538 5539 5539 5539 5538 5538 5538 5538 5538 5537 5537 5536 5535 5534 5534 5534 5534 5534 5533 5532 5531 5528 5527 5526 5525 5524 5524 5524 5524 5524 5524 5523 5522 5521 5521 5521 5521 5520 5520
5529 5529 5528 5529 5529 5530 5530 5531 5530 5530 5530 5531 5531 5530 5529 5529 5528 5527 5526 5526 5525 5524 5523 5523 5521 5519 5517 5516 5515 5514 5515 5514 5514 5514 5514 5513 5513 5512 5512 5512 5512 5512 5512
5520 5520 5520 5520 5521 5521 5522 5522 5523 5523 5522 5523 5523 5522 5522 5522 5521 5520 5519 5517 5516 5515 5514 5513 5512 5510 5508 5507 5506 5506 5505 5505 5504 5504 5503 5503 5503 5503 5502 5502 5503 5503 5503
5511 5510 5511 5511 5512 5513 5515 5516 5515 5515 5514 5514 5514 5514 5514 5513 5513 5513 5512 5511 5510 5508 5506 5505 5504 5503 5502 5500 5498 5497 5495 5494 5494 5494 5492 5494 5493 5493 5493 5493 5493 5494 5494
5501 5501 5501 5502 5503 5504 5506 5507 5508 5506 5506 5506 5506 5505 5505 5506 5505 5504 5504 5503 5502 5501 5501 5499 5497 5496 5494 5492 5490 5488 5486 5484 5484 5483 5481 5484 5484 5484 5484 5484 5484 5484 5485
5490 5490 5491 5492 5493 5495 5496 5497 5498 5498 5497 5498 5498 5497 5497 5497 5496 5495 5494 5493 5493 5492 5491 5491 5491 5489 5487 5485 5482 5481 5478 5475 5473 5472 5470 5471 5473 5473 5475 5475 5475 5475 5475
5479 5480 5481 5481 5482 5484 5486 5487 5488 5487 5488 5488 5489 5489 5489 5489 5489 5488 5485 5484 5483 5482 5482 5482 5481 5480 5478 5476 5473 5469 5466 5464 5464 5463 5460 5459 5461 5462 5464 5466 5467 5466 5465
5467 5468 5469 5470 5471 5473 5475 5477 5477 5477 5477 5479 5479 5479 5480 5480 5480 5479 5477 5475 5474 5473 5471 5470 5469 5468 5466 5464 5462 5460 5457 5454 5452 5452 5451 5448 5448 5447 5452 5456 5456 5455 5454